Location: Township of South Roscoe
(37.9570°N, 100.1180°W)
Time: 17:13:11
(UTC+00:00)

Daily predictions for brighter satellites

Satellite Brightness Start Highest point End
(mag) Time Altitude Azimuth Time Altitude Azimuth Time Altitude Azimuth
Cosmos 1758 3.5 12:01:18 10° NNW 12:05:09 48° W 12:08:58 10° SSW
ATLAS 5 CENTAUR R/B 4.2 12:04:56 11° W 12:05:46 11° WSW 12:07:38 10° SW
Cosmos 2360 Rocket 3.6 12:01:30 10° N 12:06:51 40° ENE 12:12:09 10° SE
SJ-12 4.1 12:03:09 10° N 12:07:04 48° WNW 12:10:58 10° SSW
Envisat 3.0 12:02:52 10° N 12:07:55 67° WNW 12:12:56 10° SSW
COSMO-SKYMED 1 2.5 12:04:27 10° S 12:08:46 75° WSW 12:13:08 10° NNW
Cosmos 1953 2.5 12:11:11 10° N 12:15:14 79° E 12:19:15 10° S
BREEZE-M DEB (TANK) 3.6 12:13:37 10° NW 12:15:26 16° N 12:16:57 10° NE
Lacrosse 5 3.5 12:14:34 10° NNW 12:19:02 30° NE 12:23:29 10° E
Cosmos 371 Rocket 3.3 12:17:18 10° NNW 12:22:11 73° WSW 12:27:01 10° S
USA 229 DEB 4.1 12:15:16 10° NW 12:22:34 57° WSW 12:30:13 10° SSE
USA 229 4.1 12:15:22 10° NW 12:22:40 57° WSW 12:30:19 10° SSE
Cosmos 1346 Rocket 3.2 12:22:01 10° SSW 12:25:48 41° WNW 12:29:37 10° N
CZ-4C R/B 4.2 12:21:52 10° NNW 12:28:55 45° NE 12:36:56 10° ESE
